Simultaneous Nadir Overpasses (SNOs) Predictions

Prediction of SNOs between GOES-15 and LANDSAT-8 Satellite Orbit:

Table of predicted SNOs for the next 14.0 days since TLE Epoch: 2/21/2025
Index Date Time (GOES-15) GOES-15 Lat,Lon LANDSAT-8 Lat,Lon Distance(km) Time Diff (sec)
1 02/22/2025 06:20:48 -0.02, 61.43 0.80, 57.63 432.02 80
2 02/23/2025 17:47:20 0.02, 61.38 0.95, 65.75 495.98 80
3 02/24/2025 06:08:35 -0.03, 61.42 0.15, 60.59 94.36 80
4 02/26/2025 05:59:01 -0.02, 61.42 -0.47, 63.56 243.12 80
5 02/26/2025 18:20:25 0.03, 61.37 -0.60, 58.36 342.07 80
6 02/28/2025 18:05:30 0.03, 61.37 -0.01, 61.34 5.41 80
7 03/02/2025 17:53:16 0.02, 61.38 0.67, 64.29 332.58 80
8 03/03/2025 06:14:30 -0.03, 61.43 0.46, 59.15 259.23 80
9 03/05/2025 06:04:55 -0.03, 61.44 -0.19, 62.12 77.35 80
10 03/07/2025 05:52:39 -0.04, 61.45 -0.80, 65.09 413.43 80
11 03/07/2025 18:14:02 0.05, 61.40 -0.29, 59.90 171.09 80
